EW0199 Weather Reports


Display with metric or nautical units.
time (UTC)temp
F
wind
direction
speed
MPH
gust
MPH
rain 1hr
in
rain 24hr
in
rain mn
in
humidity
%
barometer
mb
20260503012911 49 263 0.0 0.0 0.00 0.00 0.00 46 1009.5
20260503012414 50 262 0.0 0.0 0.00 0.00 0.00 46 1009.5
20260503011942 51 262 0.0 0.0 0.00 0.00 0.00 43 1009.4
20260503011428 52 263 0.0 1.0 0.00 0.00 0.00 41 1009.4
20260503010824 52 262 0.0 1.0 0.00 0.00 0.00 40 1009.4
20260503010326 53 262 0.0 0.0 0.00 0.00 0.00 40 1009.4
20260503005851 53 262 0.0 1.0 0.00 0.00 0.00 39 1009.4
20260503004842 54 267 0.0 0.0 0.00 0.00 0.00 38 1009.5
20260503003827 56 267 0.0 1.0 0.00 0.00 0.00 36 1009.5
20260503003330 56 267 0.0 1.0 0.00 0.00 0.00 35 1009.5
20260503002856 57 232 0.0 2.0 0.00 0.00 0.00 34 1009.5
20260503002419 57 283 0.0 4.0 0.00 0.00 0.00 33 1009.5
20260503001919 57 283 0.0 4.0 0.00 0.00 0.00 33 1009.5
20260503001335 58 217 1.0 3.0 0.00 0.00 0.00 33 1009.6
20260503000904 58 278 0.0 5.0 0.00 0.00 0.00 33 1009.6
20260503000419 58 257 1.0 5.0 0.00 0.00 0.00 32 1009.6
20260502235830 59 188 1.0 6.0 0.00 0.00 0.00 31 1009.6
20260502235338 59 222 3.0 8.0 0.00 0.00 0.00 31 1009.6
20260502234845 59 290 2.0 8.0 0.00 0.00 0.00 32 1009.7
20260502234355 59 245 2.0 7.0 0.00 0.00 0.00 31 1009.7
20260502233901 59 213 2.0 7.0 0.00 0.00 0.00 32 1009.7
20260502233418 59 282 2.0 9.0 0.00 0.00 0.00 31 1009.7
20260502232838 59 271 4.0 14.0 0.00 0.00 0.00 30 1009.8
20260502232356 60 283 6.0 14.0 0.00 0.00 0.00 29 1009.8
20260502231902 60 281 3.0 10.0 0.00 0.00 0.00 31 1009.9
20260502231401 60 298 4.0 10.0 0.00 0.00 0.00 30 1009.9
20260502230822 59 316 0.0 7.0 0.00 0.00 0.00 30 1010.0
20260502230330 58 269 2.0 5.0 0.00 0.00 0.00 31 1010.0
20260502225854 58 132 1.0 7.0 0.00 0.00 0.00 31 1010.0
20260502225402 59 222 1.0 7.0 0.00 0.00 0.00 30 1010.1
20260502224910 59 262 2.0 8.0 0.00 0.00 0.00 29 1010.2
20260502224426 60 224 2.0 6.0 0.00 0.00 0.00 29 1010.2
20260502223826 61 269 3.0 10.0 0.00 0.00 0.00 29 1010.3
20260502223351 60 275 4.0 10.0 0.00 0.00 0.00 30 1010.2
20260502222858 60 326 5.0 11.0 0.00 0.00 0.00 29 1010.3
20260502222346 61 298 4.0 11.0 0.00 0.00 0.00 28 1010.3
20260502221845 60 139 3.0 10.0 0.00 0.00 0.00 29 1010.4
20260502221406 59 316 5.0 11.0 0.00 0.00 0.00 30 1010.5
20260502220909 59 288 6.0 11.0 0.00 0.00 0.00 30 1010.5
20260502220326 59 282 2.0 7.0 0.00 0.00 0.00 30 1010.5
20260502215850 59 324 1.0 8.0 0.00 0.00 0.00 30 1010.5
20260502215413 59 290 4.0 8.0 0.00 0.00 0.00 30 1010.6
20260502214829 58 268 1.0 13.0 0.00 0.00 0.00 31 1010.7
20260502214355 58 327 3.0 13.0 0.00 0.00 0.00 30 1010.7
20260502213916 58 290 6.0 10.0 0.00 0.00 0.00 31 1010.7
20260502213331 58 289 1.0 7.0 0.00 0.00 0.00 33 1010.8
20260502212839 57 271 1.0 11.0 0.00 0.00 0.00 32 1010.8
20260502212401 58 272 4.0 11.0 0.00 0.00 0.00 31 1011.0
20260502211934 58 293 6.0 11.0 0.00 0.00 0.00 32 1010.9
20260502211439 58 289 1.0 7.0 0.00 0.00 0.00 29 1011.0
20260502210837 58 328 5.0 7.0 0.00 0.00 0.00 30 1011.0
20260502210406 59 332 1.0 8.0 0.00 0.00 0.00 31 1011.0
20260502205341 59 251 1.0 8.0 0.00 0.00 0.00 30 1011.2
20260502204347 58 3 2.0 4.0 0.00 0.00 0.00 31 1011.4
20260502203907 58 283 1.0 5.0 0.00 0.00 0.00 31 1011.4
20260502203415 57 44 1.0 5.0 0.00 0.00 0.00 32 1011.6
20260502202901 58 290 0.0 4.0 0.00 0.00 0.00 31 1011.6
20260502202421 58 43 0.0 4.0 0.00 0.00 0.00 30 1011.6
20260502201843 58 215 0.0 10.0 0.00 0.00 0.00 30 1011.7
20260502200841 59 267 5.0 10.0 0.00 0.00 0.00 31 1012.0
20260502195826 59 321 6.0 13.0 0.00 0.00 0.00 30 1012.1
20260502195357 58 219 3.0 13.0 0.00 0.00 0.00 31 1011.9
20260502194909 58 278 7.0 13.0 0.00 0.00 0.00 30 1012.3
20260502194331 59 302 3.0 7.0 0.00 0.00 0.00 34 1012.3
20260502193842 58 298 4.0 9.0 0.00 0.00 0.00 31 1012.4
20260502193351 58 283 4.0 10.0 0.00 0.00 0.00 32 1012.6
20260502192914 57 262 6.0 10.0 0.00 0.00 0.00 31 1012.7
20260502192334 57 226 2.0 8.0 0.00 0.00 0.00 31 1012.8
20260502191855 57 271 3.0 12.0 0.00 0.00 0.00 31 1012.8
20260502191406 56 258 4.0 11.0 0.00 0.00 0.00 31 1012.8
20260502190828 57 320 3.0 14.0 0.00 0.00 0.00 30 1012.8
20260502190330 57 308 4.0 9.0 0.00 0.00 0.00 30 1012.9
20260502185849 57 258 1.0 10.0 0.00 0.00 0.00 31 1013.0
20260502185408 57 333 3.0 10.0 0.00 0.00 0.00 32 1013.2
20260502184916 57 310 4.0 8.0 0.00 0.00 0.00 31 1013.2
20260502184337 57 243 3.0 7.0 0.00 0.00 0.00 32 1013.2
20260502183855 56 303 2.0 7.0 0.00 0.00 0.00 32 1013.3
20260502183421 56 25 2.0 7.0 0.00 0.00 0.00 33 1013.3
20260502182839 54 253 3.0 7.0 0.00 0.00 0.00 33 1013.4
20260502182342 54 283 4.0 7.0 0.00 0.00 0.00 32 1013.5
20260502181330 56 12 4.0 8.0 0.00 0.00 0.00 31 1013.6
20260502180850 55 316 3.0 8.0 0.00 0.00 0.00 33 1013.7
20260502180358 55 295 3.0 8.0 0.00 0.00 0.00 32 1013.9
20260502170403 53 46 4.0 12.0 0.00 0.00 0.00 36 1014.6
20260502163858 51 352 5.0 11.0 0.00 0.00 0.00 36 1015.0
20260502163416 52 277 0.0 8.0 0.00 0.00 0.00 35 1015.1
20260502162836 53 219 4.0 11.0 0.00 0.00 0.00 35 1015.1
20260502162345 52 264 4.0 11.0 0.00 0.00 0.00 36 1015.2
20260502161410 52 357 4.0 10.0 0.00 0.00 0.00 37 1015.3
20260502160828 52 320 2.0 12.0 0.00 0.00 0.00 35 1015.3
20260502160355 52 305 3.0 12.0 0.00 0.00 0.00 35 1015.5
20260502151842 50 153 1.0 5.0 0.00 0.00 0.00 44 1015.8
20260502150843 49 213 1.0 6.0 0.00 0.00 0.00 44 1015.9
20260502123412 27 25 0.0 0.0 0.00 0.00 0.00 96 1017.4
20260502122921 27 25 0.0 0.0 0.00 0.00 0.00 96 1017.4
20260502122346 26 23 0.0 0.0 0.00 0.00 0.00 96 1017.4
20260502121911 25 25 0.0 0.0 0.00 0.00 0.00 96 1017.3
20260502121407 25 26 0.0 0.0 0.00 0.00 0.00 96 1017.4
20260502120829 24 25 0.0 0.0 0.00 0.00 0.00 96 1017.3
20260502120359 24 26 0.0 0.0 0.00 0.00 0.00 96 1017.3
20260502115918 24 25 0.0 0.0 0.00 0.00 0.00 96 1017.3
20260502115339 23 25 0.0 0.0 0.00 0.00 0.00 96 1017.4
20260502114909 23 25 0.0 0.0 0.00 0.00 0.00 96 1017.3
20260502114436 22 25 0.0 0.0 0.00 0.00 0.00 95 1017.3
20260502113941 22 25 0.0 0.0 0.00 0.00 0.00 95 1017.3
20260502113340 22 25 0.0 0.0 0.00 0.00 0.00 95 1017.3
20260502112904 21 25 0.0 0.0 0.00 0.00 0.00 95 1017.3
20260502112419 21 25 0.0 0.0 0.00 0.00 0.00 95 1017.3
20260502111921 21 25 0.0 0.0 0.00 0.00 0.00 95 1017.3
20260502111410 21 25 0.0 0.0 0.00 0.00 0.00 95 1017.3
20260502110935 21 25 0.0 0.0 0.00 0.00 0.00 95 1017.3
20260502110419 21 25 0.0 0.0 0.00 0.00 0.00 95 1017.3
20260502105840 21 25 0.0 0.0 0.00 0.00 0.00 95 1017.3
20260502105404 21 25 0.0 0.0 0.00 0.00 0.00 95 1017.2
20260502104902 20 25 0.0 0.0 0.00 0.00 0.00 95 1017.2
20260502104325 20 26 0.0 0.0 0.00 0.00 0.00 95 1017.3
20260502103848 20 25 0.0 0.0 0.00 0.00 0.00 95 1017.3
20260502103415 20 25 0.0 0.0 0.00 0.00 0.00 95 1017.3
20260502102831 20 25 0.0 0.0 0.00 0.00 0.00 95 1017.2
20260502102352 20 25 0.0 0.0 0.00 0.00 0.00 95 1017.2
20260502101854 20 26 0.0 0.0 0.00 0.00 0.00 95 1017.2
20260502101405 20 25 0.0 0.0 0.00 0.00 0.00 95 1017.2
20260502100911 20 25 0.0 0.0 0.00 0.00 0.00 95 1017.1
20260502100418 21 25 0.0 0.0 0.00 0.00 0.00 95 1017.1
20260502091359 21 25 0.0 0.0 0.00 0.00 0.00 95 1017.0
20260502090922 21 25 0.0 0.0 0.00 0.00 0.00 95 1017.0
20260502090410 21 25 0.0 0.0 0.00 0.00 0.00 95 1017.0
20260502071409 23 25 0.0 0.0 0.00 0.00 0.00 94 1017.0
20260502070827 23 25 0.0 0.0 0.00 0.00 0.00 95 1017.0
20260502070355 23 25 0.0 0.0 0.00 0.00 0.00 95 1017.0
20260502065848 23 25 0.0 0.0 0.00 0.00 0.00 94 1017.0
20260502065334 23 25 0.0 0.0 0.00 0.00 0.00 94 1017.1
20260502064840 23 25 0.0 0.0 0.00 0.00 0.00 94 1017.1
20260502064325 23 25 0.0 0.0 0.00 0.00 0.00 94 1017.1
20260502063830 23 25 0.0 0.0 0.00 0.00 0.00 94 1017.1
20260502063337 23 26 0.0 0.0 0.00 0.00 0.00 94 1017.1
20260502062827 23 25 0.0 0.0 0.00 0.00 0.00 94 1017.1
20260502062334 23 25 0.0 0.0 0.00 0.00 0.00 94 1017.1
20260502061840 23 25 0.0 0.0 0.00 0.00 0.00 94 1017.1
20260502061324 23 25 0.0 0.0 0.00 0.00 0.00 94 1017.2
20260502060830 23 25 0.0 0.0 0.00 0.00 0.00 94 1017.2
20260502060356 23 25 0.0 0.0 0.00 0.00 0.00 94 1017.2
20260502055841 24 25 0.0 0.0 0.00 0.00 0.00 94 1017.1
20260502055326 24 25 0.0 0.0 0.00 0.00 0.00 94 1017.1
20260502054833 24 26 0.0 0.0 0.00 0.00 0.00 94 1017.1
20260502054339 24 25 0.0 0.0 0.00 0.00 0.00 94 1017.1
20260502053823 24 25 0.0 0.0 0.00 0.00 0.00 94 1017.0
20260502053329 24 26 0.0 0.0 0.00 0.00 0.00 94 1017.1
20260502052840 24 25 0.0 0.0 0.00 0.00 0.00 94 1017.1
20260502052324 24 25 0.0 0.0 0.00 0.00 0.00 94 1017.1
20260502051830 24 25 0.0 0.0 0.00 0.00 0.00 94 1017.1
20260502051337 24 25 0.0 0.0 0.00 0.00 0.00 94 1017.0
20260502050843 24 25 0.0 0.0 0.00 0.00 0.00 94 1017.0
20260502050329 24 26 0.0 0.0 0.00 0.00 0.00 93 1017.0
20260502045848 25 25 0.0 0.0 0.00 0.00 0.00 93 1017.0
20260502045411 25 25 0.0 0.0 0.00 0.00 0.00 93 1017.0
20260502044920 25 25 0.0 0.0 0.00 0.00 0.00 93 1017.0
20260502044338 25 25 0.0 0.0 0.00 0.00 0.00 93 1017.0
20260502043903 25 25 0.0 0.0 0.00 0.00 0.00 92 1017.0
20260502043327 25 25 0.0 0.0 0.00 0.00 0.00 92 1016.9
20260502042853 25 25 0.0 0.0 0.00 0.00 0.00 92 1017.0
20260502042421 25 25 0.0 0.0 0.00 0.00 0.00 92 1017.0
20260502041845 25 25 0.0 0.0 0.00 0.00 0.00 91 1017.0
20260502041355 25 25 0.0 0.0 0.00 0.00 0.00 92 1017.1
20260502040843 25 25 0.0 0.0 0.00 0.00 0.00 91 1017.1
20260502035847 26 25 0.0 0.0 0.00 0.00 0.00 90 1017.0
20260502035411 26 25 0.0 0.0 0.00 0.00 0.00 90 1017.0
20260502034940 26 25 0.0 0.0 0.00 0.00 0.00 90 1017.0
20260502034337 26 25 0.0 0.0 0.00 0.00 0.00 90 1017.0
20260502033900 26 25 0.0 0.0 0.00 0.00 0.00 90 1017.1
20260502033423 26 25 0.0 0.0 0.00 0.00 0.00 90 1017.0
20260502032841 26 25 0.0 0.0 0.00 0.00 0.00 89 1017.0
20260502031844 27 25 0.0 0.0 0.00 0.00 0.00 89 1017.1
20260502031353 27 24 0.0 0.0 0.00 0.00 0.00 88 1017.1
20260502030903 27 25 0.0 0.0 0.00 0.00 0.00 88 1017.1
20260502030413 27 26 0.0 0.0 0.00 0.00 0.00 88 1017.1
20260502025827 27 25 0.0 0.0 0.00 0.00 0.00 87 1017.0
20260502025335 28 25 0.0 0.0 0.00 0.00 0.00 87 1017.1
20260502024858 28 25 0.0 0.0 0.00 0.00 0.00 86 1017.0
20260502024359 28 25 0.0 0.0 0.00 0.00 0.00 84 1017.0
20260502023900 28 25 0.0 0.0 0.00 0.00 0.00 83 1017.0
20260502023432 29 25 0.0 0.0 0.00 0.00 0.00 83 1017.0
20260502022833 29 25 0.0 0.0 0.00 0.00 0.00 83 1017.0
20260502022342 29 24 0.0 0.0 0.00 0.00 0.00 83 1016.9
20260502021906 30 24 0.0 0.0 0.00 0.00 0.00 82 1017.0
20260502021330 30 24 0.0 0.0 0.00 0.00 0.00 81 1017.0
20260502020855 30 24 0.0 0.0 0.00 0.00 0.00 81 1016.9
20260502020417 31 24 0.0 0.0 0.00 0.00 0.00 81 1016.9
20260502015837 31 24 0.0 0.0 0.00 0.00 0.00 81 1016.9
20260502015401 31 24 0.0 0.0 0.00 0.00 0.00 80 1016.9
20260502014910 32 24 0.0 0.0 0.00 0.00 0.00 79 1016.8
20260502014334 33 24 0.0 0.0 0.00 0.00 0.00 76 1016.7
20260502013857 33 24 0.0 0.0 0.00 0.00 0.00 75 1016.8
20260502013358 33 24 0.0 1.0 0.00 0.00 0.00 74 1016.7